Tracking 20621 objects as of 30-Mar-2020
HD Live streaming from Space Station
objects crossing your sky now

SL-8 R/B

Track SL-8 R/B now!
10-day predictions


NORAD ID: 11511
Int'l Code: 1979-078B
Perigee: 764.2 km
Apogee: 787.8 km
Inclination: 74.0 °
Period: 100.2 minutes
Semi major axis: 7146 km
RCS: 4.942 m2 (large)
Launch date: August 28, 1979
Source: Commonwealth of Independent States (former USSR) (CIS)
Launch site: PLESETSK MISSILE AND SPACE COMPLEX (PKMTR)

Note: This is a ROCKET BODY
aabbcc
Your satellite tracking list
Your tracking list is empty




NASA's NSSDC Master Catalog

Two Line Element Set (TLE):
1 11511U 79078B   20090.12008231 -.00000047 +00000-0 -69012-5 0  9994
2 11511 074.0341 246.0085 0016527 243.0341 116.9124 14.36871301124389
Source of the keplerian elements: AFSPC